Location: Amon Carter Post Office
(32.8281°N, 97.0484°W)
Time: 04:05:53
(UTC+00:00)

Meteor 2-15 Rocket - Pass Details

Date: 09 July 2022
Orbit: 939 x 956 km, 82.5° (Epoch: 07 August)

Event Time Altitude Azimuth Distance (km) Brightness Sun altitude
Rises 09:28:21 0° 10° (N) 3,634 8.4 -20.8°
Reaches altitude 10° 09:31:29 10° 25° (NNE) 2,683 7.8 -20.4°
Maximum altitude 09:36:08 22° 74° (ENE) 1,939 6.8 -19.7°
Drops below altitude 10° 09:40:44 10° 124° (SE) 2,664 6.9 -19.0°
Sets 09:43:48 0° 139° (SE) 3,602 7.5 -18.6°
